When you browse on this site, cookies collect data to enhance your experience and personalize the content and advertising you see.
Visit our Privacy Policy to learn more. By continuing to use the site, you agree to this use of cookies and data.
  • In Switzerland
  • List of Countries
  • For 7 days
  • Water Temperature
  • Satellite Maps
  • Weather Map
  • Weather Widgets
  • user-avatar
    Login

    Hourly Weather Yanmen

    Today, 26 May, Sunday

    Time Temperature Precipitation Wind Pressure Humidity
    00:00 +22°C° 1.5 mm 0 mps 730 mmHg 96%
    01:00 +22°C° 0 mm 0 mps 730 mmHg 97%
    02:00 +22°C° 0.2 mm 0 mps 730 mmHg 97%
    03:00 +22°C° 0.2 mm 0 mps 730 mmHg 97%
    04:00 +21°C° 0.2 mm 0 mps 730 mmHg 97%
    05:00 +22°C° 0.4 mm 0 mps 731 mmHg 95%
    06:00 +23°C° 0.4 mm 0 mps 731 mmHg 93%
    07:00 +25°C° 0 mm 0 mps 731 mmHg 90%
    08:00 +26°C° 0.2 mm 0 mps 731 mmHg 85%
    09:00 +28°C° 0.2 mm 0 mps 732 mmHg 80%
    10:00 +29°C° 0.2 mm 0 mps 732 mmHg 75%
    11:00 +30°C° 1 mm 0 mps 731 mmHg 73%
    12:00 +31°C° 1 mm 0 mps 731 mmHg 71%
    13:00 +32°C° 1 mm 0 mps 731 mmHg 69%
    14:00 +33°C° 0.4 mm 1 mps 730 mmHg 70%
    15:00 +33°C° 0.4 mm 1 mps 730 mmHg 70%
    16:00 +32°C° 0.4 mm 1 mps 730 mmHg 71%
    17:00 +31°C° 1 mm 1 mps 730 mmHg 77%
    18:00 +29°C° 1 mm 1 mps 730 mmHg 84%
    19:00 +25°C° 1 mm 0 mps 731 mmHg 91%
    20:00 +25°C° 0.2 mm 0 mps 731 mmHg 91%
    21:00 +24°C° 0.2 mm 0 mps 732 mmHg 92%
    22:00 +26°C° 0.2 mm 1 mps 733 mmHg 92%
    23:00 +26°C° 0.1 mm 1 mps 733 mmHg 93%

    Tomorrow, 27 May, Monday

    Time Temperature Precipitation Wind Pressure Humidity
    00:00 +25°C° 0.1 mm 1 mps 733 mmHg 94%
    01:00 +25°C° 0.1 mm 1 mps 733 mmHg 95%
    02:00 +25°C° 0 mm 1 mps 733 mmHg 96%
    03:00 +24°C° 0 mm 1 mps 733 mmHg 96%
    04:00 +24°C° 0 mm 1 mps 733 mmHg 96%
    05:00 +25°C° 0 mm 1 mps 733 mmHg 93%
    06:00 +26°C° 0 mm 2 mps 734 mmHg 90%
    07:00 +27°C° 0 mm 2 mps 734 mmHg 87%
    08:00 +28°C° 0.1 mm 3 mps 735 mmHg 74%
    09:00 +30°C° 0.1 mm 5 mps 735 mmHg 60%
    10:00 +32°C° 0.1 mm 6 mps 736 mmHg 47%
    11:00 +32°C° 0 mm 6 mps 736 mmHg 43%
    12:00 +32°C° 0 mm 6 mps 736 mmHg 39%
    13:00 +32°C° 0 mm 6 mps 736 mmHg 36%
    14:00 +32°C° 0 mm 6 mps 736 mmHg 39%
    15:00 +30°C° 0 mm 5 mps 736 mmHg 42%
    16:00 +30°C° 0 mm 5 mps 735 mmHg 45%
    17:00 +28°C° 0 mm 4 mps 736 mmHg 50%
    18:00 +26°C° 0 mm 3 mps 736 mmHg 56%
    19:00 +24°C° 0 mm 3 mps 737 mmHg 61%
    20:00 +24°C° 0 mm 2 mps 737 mmHg 63%
    21:00 +23°C° 0 mm 2 mps 738 mmHg 65%
    22:00 +23°C° 0 mm 2 mps 739 mmHg 68%
    23:00 +21°C° 0 mm 2 mps 738 mmHg 68%

    Day after tomorrow, 28 May, Tuesday

    Time Temperature Precipitation Wind Pressure Humidity
    00:00 +21°C° 0 mm 2 mps 738 mmHg 67%
    01:00 +20°C° 0 mm 2 mps 738 mmHg 67%
    02:00 +20°C° 0 mm 2 mps 738 mmHg 67%
    03:00 +19°C° 0 mm 2 mps 738 mmHg 67%
    04:00 +19°C° 0 mm 2 mps 738 mmHg 66%
    05:00 +20°C° 0 mm 3 mps 738 mmHg 64%
    06:00 +21°C° 0 mm 3 mps 739 mmHg 61%
    07:00 +21°C° 0 mm 4 mps 739 mmHg 59%
    08:00 +23°C° 0 mm 4 mps 739 mmHg 56%
    09:00 +25°C° 0 mm 5 mps 740 mmHg 52%
    10:00 +27°C° 0 mm 5 mps 740 mmHg 49%
    11:00 +27°C° 0 mm 5 mps 740 mmHg 48%
    12:00 +28°C° 0 mm 5 mps 739 mmHg 48%
    13:00 +29°C° 0 mm 5 mps 739 mmHg 47%
    14:00 +28°C° 0 mm 4 mps 739 mmHg 52%
    15:00 +27°C° 0 mm 3 mps 738 mmHg 56%
    16:00 +25°C° 0 mm 3 mps 738 mmHg 60%
    17:00 +25°C° 0 mm 3 mps 738 mmHg 57%
    18:00 +24°C° 0 mm 3 mps 738 mmHg 54%
    19:00 +22°C° 0 mm 3 mps 739 mmHg 50%
    20:00 +21°C° 0 mm 2 mps 739 mmHg 50%
    21:00 +21°C° 0 mm 2 mps 740 mmHg 50%
    22:00 +20°C° 0 mm 2 mps 740 mmHg 51%
    23:00 +20°C° 0 mm 2 mps 739 mmHg 52%

    29 May, Wednesday

    Time Temperature Precipitation Wind Pressure Humidity
    00:00 +20°C° 0 mm 1 mps 739 mmHg 54%
    01:00 +20°C° 0 mm 1 mps 738 mmHg 56%
    02:00 +20°C° 0 mm 1 mps 738 mmHg 58%
    03:00 +19°C° 0 mm 1 mps 738 mmHg 59%
    04:00 +19°C° 0 mm 1 mps 737 mmHg 61%
    05:00 +20°C° 0 mm 1 mps 738 mmHg 61%
    06:00 +20°C° 0 mm 1 mps 738 mmHg 62%
    07:00 +21°C° 0 mm 1 mps 738 mmHg 63%
    08:00 +22°C° 0 mm 1 mps 738 mmHg 61%
    09:00 +21°C° 0 mm 0 mps 738 mmHg 59%
    10:00 +22°C° 0 mm 0 mps 738 mmHg 58%
    11:00 +25°C° 0 mm 1 mps 738 mmHg 55%
    12:00 +26°C° 0 mm 1 mps 737 mmHg 52%
    13:00 +27°C° 0 mm 1 mps 736 mmHg 50%
    14:00 +27°C° 0 mm 1 mps 736 mmHg 52%
    15:00 +27°C° 0 mm 1 mps 735 mmHg 54%
    16:00 +27°C° 0 mm 1 mps 735 mmHg 55%
    17:00 +26°C° 0 mm 1 mps 735 mmHg 59%
    18:00 +22°C° 0 mm 0 mps 735 mmHg 63%
    19:00 +21°C° 0 mm 0 mps 735 mmHg 67%
    20:00 +21°C° 0 mm 0 mps 735 mmHg 67%
    21:00 +21°C° 0 mm 0 mps 736 mmHg 68%
    22:00 +21°C° 0 mm 0 mps 736 mmHg 68%
    23:00 +20°C° 0.1 mm 0 mps 736 mmHg 71%

    30 May, Thursday

    Time Temperature Precipitation Wind Pressure Humidity
    00:00 +20°C° 0.1 mm 0 mps 736 mmHg 74%
    01:00 +20°C° 0.1 mm 0 mps 735 mmHg 78%
    02:00 +19°C° 0 mm 0 mps 735 mmHg 80%
    03:00 +19°C° 0 mm 0 mps 735 mmHg 81%
    04:00 +19°C° 0 mm 0 mps 734 mmHg 83%
    05:00 +20°C° 0 mm 0 mps 735 mmHg 80%
    06:00 +21°C° 0 mm 0 mps 735 mmHg 77%
    07:00 +22°C° 0 mm 0 mps 735 mmHg 74%
    08:00 +24°C° 0 mm 0 mps 736 mmHg 69%
    09:00 +28°C° 0 mm 1 mps 736 mmHg 64%
    10:00 +31°C° 0 mm 1 mps 736 mmHg 59%
    11:00 +31°C° 0 mm 1 mps 735 mmHg 59%
    12:00 +31°C° 0 mm 1 mps 735 mmHg 59%
    13:00 +32°C° 0 mm 1 mps 734 mmHg 59%
    14:00 +31°C° 0.1 mm 1 mps 734 mmHg 62%
    15:00 +31°C° 0.1 mm 2 mps 733 mmHg 65%
    16:00 +30°C° 0.1 mm 2 mps 733 mmHg 68%
    17:00 +29°C° 0.1 mm 2 mps 733 mmHg 73%
    18:00 +27°C° 0.1 mm 1 mps 733 mmHg 78%
    19:00 +26°C° 0.1 mm 1 mps 734 mmHg 84%
    20:00 +26°C° 0 mm 1 mps 734 mmHg 83%
    21:00 +25°C° 0 mm 1 mps 735 mmHg 82%
    22:00 +25°C° 0 mm 1 mps 736 mmHg 82%
    23:00 +24°C° 0.4 mm 1 mps 735 mmHg 84%

    31 May, Friday

    Time Temperature Precipitation Wind Pressure Humidity
    00:00 +24°C° 0.4 mm 1 mps 735 mmHg 86%
    01:00 +23°C° 0.4 mm 1 mps 735 mmHg 88%
    02:00 +23°C° 0.5 mm 1 mps 735 mmHg 88%
    03:00 +23°C° 0.5 mm 1 mps 734 mmHg 89%
    04:00 +21°C° 0.5 mm 0 mps 734 mmHg 90%
    05:00 +21°C° 0 mm 0 mps 735 mmHg 87%
    06:00 +22°C° 0 mm 0 mps 735 mmHg 85%
    07:00 +23°C° 0 mm 0 mps 736 mmHg 82%
    08:00 +25°C° 0 mm 0 mps 736 mmHg 75%
    09:00 +29°C° 0 mm 1 mps 736 mmHg 68%
    10:00 +31°C° 0 mm 1 mps 736 mmHg 60%
    11:00 +32°C° 0.1 mm 1 mps 735 mmHg 59%
    12:00 +33°C° 0.1 mm 1 mps 735 mmHg 57%
    13:00 +34°C° 0.1 mm 1 mps 734 mmHg 56%
    14:00 +33°C° 0.7 mm 1 mps 734 mmHg 60%
    15:00 +32°C° 0.7 mm 1 mps 733 mmHg 64%
    16:00 +31°C° 0.7 mm 1 mps 733 mmHg 69%
    17:00 +29°C° 1.1 mm 1 mps 733 mmHg 76%
    18:00 +28°C° 1.1 mm 1 mps 733 mmHg 83%
    19:00 +26°C° 1.1 mm 1 mps 734 mmHg 90%
    20:00 +26°C° 0.1 mm 1 mps 734 mmHg 90%
    21:00 +25°C° 0.1 mm 1 mps 734 mmHg 91%
    22:00 +23°C° 0.1 mm 0 mps 735 mmHg 92%
    23:00 +23°C° 0 mm 0 mps 734 mmHg 93%
    Show more